Hourly Data Report for September 21, 2017

All times are specified in Local Standard Time (LST). Add 1 hour to adjust for Daylight Saving Time where and when it is observed.

GRAND MANAN SAR CS
NEW BRUNSWICK

44°42'43.400" N
66°48'06.900" W
78.20 m
8101925
71030
XGM

Download Data

Hourly Data (September 2017)
Hourly Data Report for September 21, 2017
Temp Definition
°C
Dew Point Temp Definition
°C
Rel Hum Definition
%
Wind Dir Definition
10's deg

Wind Spd Definition
km/h
Visibility Definition
km
Stn Press Definition
kPa
Hmdx Definition


Wind Chill Definition


Weather Definition


TIME
00:00 16.8 16.3 97 6 18   100.68     LegendNANA
01:00 16.4 16.1 98 5 20   100.73     LegendNANA
02:00 15.9 15.6 98 6 23   100.71     LegendNANA
03:00 14.8 14.6 99 6 22   100.74     LegendNANA
04:00 14.2 13.5 95 6 24   100.74     LegendNANA
05:00 14.3 13.9 98 6 22   100.76     LegendNANA
06:00 14.4 12.0 86 5 26   100.78     LegendNANA
07:00 14.6 12.1 85 4 27   100.85     LegendNANA
08:00 15.4 11.6 78 5 28   100.91     LegendNANA
09:00 15.7 11.3 75 5 28   100.96     LegendNANA
10:00 17.4 11.7 69 5 28   100.99     LegendNANA
11:00 18.7 11.4 63 5 29   100.99     LegendNANA
12:00 18.6 12.4 67 6 27   101.02     LegendNANA
13:00 18.4 12.0 66 5 30   101.01     LegendNANA
14:00 18.0 11.6 66 5 26   100.99     LegendNANA
15:00 18.1 12.8 72 5 25   101.01     LegendNANA
16:00 17.4 11.6 68 6 23   101.02     LegendNANA
17:00 16.1 10.7 71 5 24   101.03     LegendNANA
18:00 14.8 10.2 74 6 23   101.02     LegendNANA
19:00 15.2 9.3 68 7 23   101.03     LegendNANA
20:00 14.9 9.2 69 6 25   101.11     LegendNANA
21:00 14.2 9.4 73 6 23   101.17     LegendNANA
22:00 13.6 9.8 78 6 23   101.19     LegendNANA
23:00 13.0 9.8 81 5 22   101.21     LegendNANA

Notes on Data Quality.

Legend

  • E = Estimated
  • M = Missing
  • NA = Not Available
  • ‡ = Partner data that is not subject to review by the National Climate Archives
Date modified: